Location: Darlington Observatory
(36.4817°N, 105.8156°W)
Time: 00:39:27
(UTC-06:00)

MOS 1 - Visible Passes

Search period start: 29 July 2014 00:00
Search period end: 08 August 2014 00:00
Orbit: 880 x 892 km, 99.2° (Epoch: 27 July)

Date Brightness Start Highest point End Pass type
(mag) Time Alt. Az. Time Alt. Az. Time Alt. Az.
29 Jul 7.1 04:11:20 10° ENE 04:12:38 11° E 04:13:55 10° ESE visible
30 Jul 7.2 04:10:20 10° E 04:11:04 10° E 04:11:48 10° E visible
03 Aug 4.5 05:41:12 10° NNE 05:46:56 82° ESE 05:52:37 10° SSW visible
04 Aug 4.5 05:39:40 10° NNE 05:45:24 80° ESE 05:51:05 10° S visible
05 Aug 4.6 05:38:08 10° NNE 05:43:52 77° ESE 05:49:32 10° S visible
06 Aug 4.6 05:36:36 10° NNE 05:42:19 75° ESE 05:47:59 10° S visible
07 Aug 4.6 05:35:05 10° NNE 05:40:47 72° ESE 05:46:27 10° S visible
